CW9754 Arroyo PR US current weather conditions

sailwx.info

Wind from 059 at 1 knots gusting 5

Air temperature 29.4° C
Dewpoint 22.2° C

Last reported at 2019-Dec-06 20:05 UTC.
Time now 2019-Dec-06 20:25 UTC

Location: N 17°59' W 066°03'.
View on Google Maps.

See reports from other nearby stations

  
Tides and Currents Weather Stations Pressure Air Temp Water Temp Dewpoint Dewpoint Depression Visibility Wind Speed Wind Dir Waves Ship Positions
date/time (UTC)wind fromknots sea level pressurealtimeterstation pressurevisibilityair tempwater tempwave heightnotes
2019-Dec-06 20:05 059 1 gusting 5 29.4
2019-Dec-06 20:00 075 0 gusting 6 29.4
2019-Dec-06 19:55 356 0 gusting 9 29.4
2019-Dec-06 19:47 088 5 gusting 11 29.4
2019-Dec-06 19:40 126 4 gusting 12 29.4
2019-Dec-06 19:35 146 6 gusting 12 29.4
2019-Dec-06 19:31 150 5 gusting 11 29.4
2019-Dec-06 19:25 106 4 gusting 10 29.4
2019-Dec-06 19:20 136 4 gusting 10 29.4
2019-Dec-06 19:16 097 3 gusting 10 30.0
2019-Dec-06 19:10 137 3 gusting 9 30.0
2019-Dec-06 19:06 146 5 gusting 9 30.0
2019-Dec-06 19:02 088 4 gusting 8 30.0
2019-Dec-06 18:55 115 4 gusting 8 30.0
2019-Dec-06 18:50 065 3 gusting 7 30.0
2019-Dec-06 18:46 082 1 gusting 7 30.0
2019-Dec-06 18:40 066 0 gusting 6 30.6
2019-Dec-06 18:35 092 0 gusting 8 30.6
2019-Dec-06 18:31 034 0 gusting 10 30.6
2019-Dec-06 18:25 045 1 gusting 10 30.6
2019-Dec-06 18:20 048 2 gusting 6 30.6
2019-Dec-06 18:15 067 1 gusting 7 30.6
2019-Dec-06 18:10 352 0 gusting 7 30.6
2019-Dec-06 18:05 106 3 gusting 8 30.6
2019-Dec-06 18:01 136 1 gusting 10 30.6
2019-Dec-06 17:55 074 3 gusting 10 30.6
2019-Dec-06 17:50 103 4 gusting 10 30.6
2019-Dec-06 17:45 054 3 gusting 9 30.0
2019-Dec-06 17:40 068 30.0
2019-Dec-06 17:35 034 2 gusting 13 29.4
2019-Dec-06 17:30 060 29.4
2019-Dec-06 17:25 082 6 gusting 13 29.4
2019-Dec-06 17:20 089 0 gusting 6 29.4
2019-Dec-06 17:10 086 2 gusting 7 29.4
2019-Dec-06 17:05 070 1 gusting 7 29.4
2019-Dec-06 16:55 060 0 gusting 8 30.0
2019-Dec-06 16:50 070 30.0
2019-Dec-06 16:40 124 1 gusting 8 30.0
2019-Dec-06 16:35 093 5 gusting 10 30.6
2019-Dec-06 16:25 101 4 gusting 12 30.0
2019-Dec-06 16:20 067 3 gusting 12 30.0
2019-Dec-06 16:17 127 3 gusting 13 30.0
2019-Dec-06 16:10 113 3 gusting 13 29.4
2019-Dec-06 16:05 157 29.4
2019-Dec-06 16:01 078 2 gusting 7 28.9
2019-Dec-06 15:55 071 2 gusting 7 28.9
2019-Dec-06 15:50 060 3 gusting 7 29.4
2019-Dec-06 15:46 080 3 gusting 12 29.4
2019-Dec-06 15:40 103 3 gusting 12 29.4
2019-Dec-06 15:35 160 4 gusting 11 29.4
2019-Dec-06 15:32 133 4 gusting 11 29.4
2019-Dec-06 15:25 140 5 gusting 10 30.0
2019-Dec-06 15:20 140 4 gusting 12 30.0
2019-Dec-06 15:16 122 3 gusting 12 29.4
2019-Dec-06 15:10 083 5 gusting 13 29.4
2019-Dec-06 15:05 119 6 gusting 12 29.4
2019-Dec-06 15:01 110 4 gusting 10 30.0
2019-Dec-06 14:55 114 5 gusting 10 30.0
2019-Dec-06 14:50 101 3 gusting 10 30.0
2019-Dec-06 14:45 086 4 gusting 9 29.4
2019-Dec-06 14:40 129 4 gusting 7 29.4
2019-Dec-06 14:35 099 2 gusting 6 28.9
2019-Dec-06 14:31 114 0 gusting 5 28.3
2019-Dec-06 14:25 091 28.3
2019-Dec-06 14:20 149 3 gusting 8 28.9
2019-Dec-06 14:15 107 28.9
2019-Dec-06 14:10 098 0 gusting 9 28.9
2019-Dec-06 14:05 059 3 gusting 8 28.9
2019-Dec-06 14:01 085 2 gusting 9 28.9
2019-Dec-06 13:55 107 4 gusting 9 28.9
2019-Dec-06 13:50 113 3 gusting 7 28.9
2019-Dec-06 13:45 098 1 gusting 7 28.9
2019-Dec-06 13:40 068 28.9
2019-Dec-06 13:35 075 3 gusting 9 28.3
2019-Dec-06 13:25 091 2 gusting 9 28.3
2019-Dec-06 13:15 034 0 gusting 4 28.3
2019-Dec-06 13:10 062 27.8
2019-Dec-06 13:05 057 27.8
2019-Dec-06 13:00 031 27.8
2019-Dec-06 12:55 060 27.2
2019-Dec-06 12:50 064 27.2
2019-Dec-06 12:40 053 27.2
2019-Dec-06 12:35 067 26.7
2019-Dec-06 12:32 022 26.7
2019-Dec-06 12:25 081 26.7
2019-Dec-06 12:20 052 26.7
2019-Dec-06 12:17 078 26.7
2019-Dec-06 12:10 053 26.7
2019-Dec-06 12:05 039 26.7
2019-Dec-06 12:00 075 26.1
2019-Dec-06 11:55 051 26.1
2019-Dec-06 11:50 017 26.1
2019-Dec-06 11:46 030 25.6
2019-Dec-06 11:40 051 25.6
2019-Dec-06 11:35 056 25.6
2019-Dec-06 11:32 037 25.6
2019-Dec-06 11:25 020 25.0
2019-Dec-06 11:20 003 25.0
2019-Dec-06 11:15 058 25.0
2019-Dec-06 11:10 070 25.0
2019-Dec-06 11:05 050 25.0
2019-Dec-06 11:01 025 25.0
2019-Dec-06 10:55 051 25.0
2019-Dec-06 10:50 049 25.0
2019-Dec-06 10:45 077 25.0
2019-Dec-06 10:40 051 25.0
2019-Dec-06 10:35 060 25.0
2019-Dec-06 10:31 051 25.0
2019-Dec-06 10:25 052 25.0
2019-Dec-06 10:20 034 25.0
2019-Dec-06 10:15 041 25.0
2019-Dec-06 10:10 013 25.0
2019-Dec-06 10:05 015 25.0
2019-Dec-06 10:00 044 25.0
2019-Dec-06 09:55 055 24.4
2019-Dec-06 09:50 051 24.4
2019-Dec-06 09:35 037 24.4
2019-Dec-06 09:30 354 24.4
2019-Dec-06 09:20 033 24.4
2019-Dec-06 09:16 017 24.4
2019-Dec-06 09:10 045 24.4
2019-Dec-06 09:06 013 24.4
2019-Dec-06 09:02 015 24.4
2019-Dec-06 08:55 360 24.4
2019-Dec-06 08:51 007 24.4
2019-Dec-06 08:46 032 24.4
2019-Dec-06 08:40 041 24.4
2019-Dec-06 08:35 019 24.4
2019-Dec-06 08:31 059 24.4
2019-Dec-06 08:25 044 24.4
2019-Dec-06 08:21 010 24.4
2019-Dec-06 08:16 032 24.4
2019-Dec-06 08:10 013 24.4
2019-Dec-06 08:05 030 24.4
2019-Dec-06 08:01 040 24.4
2019-Dec-06 07:55 037 24.4
2019-Dec-06 07:50 015 24.4
2019-Dec-06 07:46 012 24.4
2019-Dec-06 07:40 010 24.4
2019-Dec-06 07:35 021 24.4
2019-Dec-06 07:30 001 24.4
2019-Dec-06 07:25 031 24.4
2019-Dec-06 07:20 017 24.4
2019-Dec-06 07:15 037 24.4
2019-Dec-06 07:10 020 24.4
2019-Dec-06 07:05 352 24.4
2019-Dec-06 07:00 011 24.4
2019-Dec-06 06:55 032 24.4
2019-Dec-06 06:50 354 24.4
2019-Dec-06 06:46
2019-Dec-06 06:40
2019-Dec-06 06:31 020 24.4
2019-Dec-06 06:25 024 24.4
2019-Dec-06 06:20 022 24.4
2019-Dec-06 06:16 027 24.4
2019-Dec-06 06:10 051 24.4
2019-Dec-06 06:05 037 24.4
2019-Dec-06 06:01 345 24.4
2019-Dec-06 05:55 020 24.4
2019-Dec-06 05:50 026 24.4
2019-Dec-06 05:46 010 24.4
2019-Dec-06 05:40 014 24.4
2019-Dec-06 05:35 015 24.4
2019-Dec-06 05:31 015 24.4
2019-Dec-06 05:25 039 24.4
2019-Dec-06 05:20 011 24.4
2019-Dec-06 05:17 018 24.4
2019-Dec-06 05:10 018 24.4
2019-Dec-06 05:05 035 24.4
2019-Dec-06 05:01 026 24.4
2019-Dec-06 04:55 021 24.4
2019-Dec-06 04:50 036 24.4
2019-Dec-06 04:46 022 24.4
2019-Dec-06 04:40 013 24.4
2019-Dec-06 04:35 025 24.4
2019-Dec-06 04:31 015 24.4
2019-Dec-06 04:25 030 24.4
2019-Dec-06 04:20 015 24.4
2019-Dec-06 04:15 004 24.4
2019-Dec-06 04:10 023 25.0
2019-Dec-06 04:05 022 25.0
2019-Dec-06 04:01 013 25.0
2019-Dec-06 03:55 024 25.0
2019-Dec-06 03:50 353 25.0
2019-Dec-06 03:45 019 25.0
2019-Dec-06 03:40 011 25.0
2019-Dec-06 03:35 034 25.0
2019-Dec-06 03:30 359 25.0
2019-Dec-06 03:25 036 25.0
2019-Dec-06 03:20 036 25.0
2019-Dec-06 03:15 035 25.0
2019-Dec-06 03:10 011 25.0
2019-Dec-06 03:05 017 25.0
2019-Dec-06 03:01 011 25.0
2019-Dec-06 02:55 018 25.0
2019-Dec-06 02:50 027 25.0
2019-Dec-06 02:46 021 25.0
2019-Dec-06 02:40 053 25.0
2019-Dec-06 02:35 001 25.0
2019-Dec-06 02:30 018 25.0
2019-Dec-06 02:25 004 25.0
2019-Dec-06 02:20 013 25.0
2019-Dec-06 02:15 011 25.0
2019-Dec-06 02:10 010 25.0
2019-Dec-06 02:05 039 25.0
2019-Dec-06 02:00 036 25.0
2019-Dec-06 01:55 001 25.0
2019-Dec-06 01:50 011 25.0
2019-Dec-06 01:45 021 25.0
2019-Dec-06 01:40 011 25.0
2019-Dec-06 01:35 015 25.0
2019-Dec-06 01:25 027 25.6
2019-Dec-06 01:20 026 25.6
2019-Dec-06 01:15 041 25.6
2019-Dec-06 01:10 039 25.6
2019-Dec-06 01:00 015 25.6
2019-Dec-06 00:55 013 25.6
2019-Dec-06 00:45 017 25.6
2019-Dec-06 00:40 008 25.6
2019-Dec-06 00:35 042 25.6
2019-Dec-06 00:25 032 25.6
2019-Dec-06 00:20 024 25.6
2019-Dec-06 00:10 043 25.6
2019-Dec-06 00:05 032 25.6
2019-Dec-06 00:00 046 25.6
2019-Dec-05 23:55 007 25.6
2019-Dec-05 23:50 037 25.6
2019-Dec-05 23:40 019 25.6
2019-Dec-05 23:35 003 25.6
2019-Dec-05 23:30 005 26.1
2019-Dec-05 23:25 357 26.1
2019-Dec-05 23:20 011 26.1
2019-Dec-05 23:10 037 26.1
2019-Dec-05 23:05 001 26.1
2019-Dec-05 23:00 006 26.1
2019-Dec-05 22:55 006 26.7
2019-Dec-05 22:50 001 26.7
2019-Dec-05 22:45 024 26.7
2019-Dec-05 22:40 024 26.7
2019-Dec-05 22:30 024 27.2
2019-Dec-05 22:25 051 27.2
2019-Dec-05 22:20 039 27.8
2019-Dec-05 22:15 091 27.8
2019-Dec-05 22:10 089 27.8
2019-Dec-05 22:05 070 27.8
2019-Dec-05 22:00 086 27.8
2019-Dec-05 21:55 072 27.8
2019-Dec-05 21:50 102 28.3
2019-Dec-05 21:45 069 28.3
2019-Dec-05 21:40 078 28.3
2019-Dec-05 21:35 086 0 gusting 3 28.3
2019-Dec-05 21:30 081 28.3
2019-Dec-05 21:21 096 28.3
2019-Dec-05 21:20 099 28.3
2019-Dec-05 21:10 113 2 gusting 7 28.3
2019-Dec-05 21:05 096 28.3
2019-Dec-05 21:02 108 2 gusting 7 28.3
2019-Dec-05 20:55 101 1 gusting 8 28.9
2019-Dec-05 20:50 056 1 gusting 8 28.9
2019-Dec-05 20:46 101 2 gusting 6 28.9
2019-Dec-05 20:40 075 0 gusting 6 28.9
2019-Dec-05 20:36 120 3 gusting 6 28.9
2019-Dec-05 20:35 094 2 gusting 5 29.4
2019-Dec-05 20:26 080 3 gusting 6 28.9
2019-Dec-05 20:20 147 3 gusting 6 29.4
2019-Dec-05 20:16 058 29.4
2019-Dec-05 20:10 083 3 gusting 7 29.4
2019-Dec-05 20:05 094 29.4
2019-Dec-05 20:01 092 0 gusting 9 29.4
2019-Dec-05 19:55 122 3 gusting 9 29.4
2019-Dec-05 19:51 108 3 gusting 7 29.4
2019-Dec-05 19:47 096 2 gusting 6 29.4
2019-Dec-05 19:40 139 2 gusting 6 29.4
2019-Dec-05 19:35 148 1 gusting 6 29.4
2019-Dec-05 19:32 094 29.4
2019-Dec-05 19:25 102 1 gusting 6 29.4
2019-Dec-05 19:20 086 0 gusting 6 29.4
2019-Dec-05 19:16 069 1 gusting 6 29.4
2019-Dec-05 19:10 098 29.4
2019-Dec-05 19:05 102 1 gusting 6 28.9
2019-Dec-05 19:02 064 1 gusting 6 28.9
2019-Dec-05 18:55 129 0 gusting 7 28.9
2019-Dec-05 18:50 112 2 gusting 6 28.3
2019-Dec-05 18:47 110 0 gusting 6 28.3
2019-Dec-05 18:40 113 0 gusting 6 28.3
2019-Dec-05 18:35 115 1 gusting 9 28.9
2019-Dec-05 18:31 127 3 gusting 12 28.9
2019-Dec-05 18:25 112 3 gusting 12 29.4
2019-Dec-05 18:20 139 1 gusting 7 29.4
2019-Dec-05 18:16 122 4 gusting 8 29.4
2019-Dec-05 18:10 119 2 gusting 7 29.4
2019-Dec-05 18:05 132 3 gusting 7 30.0
2019-Dec-05 18:01 084 2 gusting 8 30.0
2019-Dec-05 17:55 134 4 gusting 8 30.0
2019-Dec-05 17:50 104 1 gusting 7 30.0
2019-Dec-05 17:46 178 3 gusting 7 30.0
2019-Dec-05 17:40 139 3 gusting 7 30.0
2019-Dec-05 17:35 116 4 gusting 9 29.4
2019-Dec-05 17:31 138 3 gusting 9 30.0
2019-Dec-05 17:25 124 3 gusting 8 30.0
2019-Dec-05 17:20 122 4 gusting 8 30.0
2019-Dec-05 17:16 092 3 gusting 9 30.0
2019-Dec-05 17:10 096 2 gusting 6 30.0
2019-Dec-05 17:05 106 1 gusting 7 29.4
2019-Dec-05 17:00 090 2 gusting 7 30.0
2019-Dec-05 16:55 103 3 gusting 7 30.0
2019-Dec-05 16:50 127 3 gusting 10 29.4
2019-Dec-05 16:45 089 2 gusting 11 29.4
2019-Dec-05 16:40 141 4 gusting 11 30.0
2019-Dec-05 16:35 094 3 gusting 7 29.4
2019-Dec-05 16:30 066 2 gusting 7 30.0
2019-Dec-05 16:25 060 2 gusting 9 30.0
2019-Dec-05 16:20 105 3 gusting 8 30.0
2019-Dec-05 16:15 027 4 gusting 10 29.4
2019-Dec-05 16:10 105 4 gusting 10 29.4
2019-Dec-05 16:05 136 3 gusting 9 30.0
2019-Dec-05 16:00 138 3 gusting 9 29.4
2019-Dec-05 15:55 120 4 gusting 9 29.4
2019-Dec-05 15:50 106 4 gusting 8 29.4
2019-Dec-05 15:45 115 3 gusting 9 29.4
2019-Dec-05 15:40 069 3 gusting 9 29.4
2019-Dec-05 15:30 135 3 gusting 11 29.4
2019-Dec-05 15:25 119 4 gusting 11 30.0
2019-Dec-05 15:20 113 3 gusting 10 30.0
2019-Dec-05 15:10 146 2 gusting 8 30.0
2019-Dec-05 15:05 182 4 gusting 8 29.4
2019-Dec-05 14:55 100 0 gusting 8 29.4
2019-Dec-05 14:50 107 4 gusting 10 29.4
2019-Dec-05 14:40 127 1 gusting 7 29.4
2019-Dec-05 14:35 103 1 gusting 7 29.4
2019-Dec-05 14:30 118 2 gusting 10 29.4
2019-Dec-05 14:25 107 2 gusting 10 29.4
2019-Dec-05 14:20 102 3 gusting 7 29.4
2019-Dec-05 14:10 141 4 gusting 9 29.4
2019-Dec-05 14:05 134 4 gusting 8 29.4
2019-Dec-05 14:00 139 3 gusting 6 28.9
2019-Dec-05 13:55 121 1 gusting 7 28.9
2019-Dec-05 13:47 149 3 gusting 9 28.9
2019-Dec-05 13:40 124 0 gusting 8 28.9
2019-Dec-05 13:36 107 28.9
2019-Dec-05 13:31 118 4 gusting 8 28.9
2019-Dec-05 13:25 085 0 gusting 7 28.9
2019-Dec-05 13:21 108 3 gusting 7 28.9
2019-Dec-05 13:17 106 0 gusting 5 28.3
2019-Dec-05 13:10 070 28.3
2019-Dec-05 13:05 057 27.8
2019-Dec-05 13:01 040 27.8
2019-Dec-05 12:55 051 27.8
2019-Dec-05 12:50 066 27.2
2019-Dec-05 12:47 031 27.2
2019-Dec-05 12:40 030 27.2
2019-Dec-05 12:35 072 26.7
2019-Dec-05 12:31 046 26.7
2019-Dec-05 12:25 015 26.7
2019-Dec-05 12:20 056 26.1
2019-Dec-05 12:16 059 26.1
2019-Dec-05 12:10 041 26.1
2019-Dec-05 12:05 037 25.6
2019-Dec-05 12:00 035 25.6
2019-Dec-05 11:55 030 25.6
2019-Dec-05 11:50 033 25.0
2019-Dec-05 11:46 030 25.0
2019-Dec-05 11:40 005 24.4
2019-Dec-05 11:35 023 24.4
2019-Dec-05 11:32 014 24.4
2019-Dec-05 11:25 023 24.4
2019-Dec-05 11:20 037 24.4
2019-Dec-05 11:15 047 24.4
2019-Dec-05 11:10 035 24.4
2019-Dec-05 11:05 026 23.9
2019-Dec-05 11:00 046 23.9
2019-Dec-05 10:55 024 23.9
2019-Dec-05 10:50 010 23.9
2019-Dec-05 10:46 006 23.9
2019-Dec-05 10:40 044 23.9
2019-Dec-05 10:35 013 23.9
2019-Dec-05 10:30 033 23.9
2019-Dec-05 10:25 030 23.9
2019-Dec-05 10:20 011 23.9
2019-Dec-05 10:15 029 23.9
2019-Dec-05 10:10 043 23.9
2019-Dec-05 10:05 023 23.9
2019-Dec-05 10:00 029 23.9
2019-Dec-05 09:50 053 23.9
2019-Dec-05 09:46 006 23.9
2019-Dec-05 09:40 041 23.9
2019-Dec-05 09:35 022 23.9
2019-Dec-05 09:31 020 23.9
2019-Dec-05 09:25 012 23.9
2019-Dec-05 09:20 025 23.9
2019-Dec-05 09:15 049 23.9
2019-Dec-05 09:10 054 23.9
2019-Dec-05 09:05 053 23.9
2019-Dec-05 09:00 038 23.9
2019-Dec-05 08:55 027 23.9
2019-Dec-05 08:50 039 24.4
2019-Dec-05 08:45 008 24.4
2019-Dec-05 08:35 033 24.4
2019-Dec-05 08:30 048 23.9
2019-Dec-05 08:25 049 24.4
2019-Dec-05 08:20 004 24.4
2019-Dec-05 08:16 032 24.4
2019-Dec-05 08:10 032 24.4
2019-Dec-05 08:05 018 24.4
2019-Dec-05 08:00 018 24.4
2019-Dec-05 07:55 018 24.4
2019-Dec-05 07:50 015 24.4
2019-Dec-05 07:45 047 24.4
2019-Dec-05 07:40 027 24.4
2019-Dec-05 07:35 018 24.4
2019-Dec-05 07:30 031 24.4
2019-Dec-05 07:25 044 24.4
2019-Dec-05 07:20 008 24.4
2019-Dec-05 07:15 001 24.4
2019-Dec-05 07:10 017 24.4
2019-Dec-05 07:05 042 24.4
2019-Dec-05 07:00 006 24.4
2019-Dec-05 06:50 025 24.4
2019-Dec-05 06:45 356 24.4
2019-Dec-05 06:40 017 24.4
2019-Dec-05 06:35 017 24.4
2019-Dec-05 06:25 013 24.4
2019-Dec-05 06:20 355 24.4
2019-Dec-05 06:10 027 24.4
2019-Dec-05 06:05 022 24.4
2019-Dec-05 05:55 011 24.4
2019-Dec-05 05:50 004 24.4
2019-Dec-05 05:45 020 24.4
2019-Dec-05 05:40 014 24.4
2019-Dec-05 05:35 004 24.4
2019-Dec-05 05:30 014 24.4
2019-Dec-05 05:25 330 24.4
2019-Dec-05 05:20 019 24.4
2019-Dec-05 05:15 020 24.4
2019-Dec-05 05:10 022 24.4
2019-Dec-05 05:05 023 24.4
2019-Dec-05 05:00 025 24.4
2019-Dec-05 04:55 014 24.4
2019-Dec-05 04:47 015 24.4
2019-Dec-05 04:41 015 24.4
2019-Dec-05 04:35 015 24.4
2019-Dec-05 04:32 005 24.4
2019-Dec-05 04:26 011 24.4
2019-Dec-05 04:20 013 24.4
2019-Dec-05 04:17 005 24.4
2019-Dec-05 04:10 037 24.4
2019-Dec-05 04:02 020 25.0
2019-Dec-05 03:56 023 25.0
2019-Dec-05 03:51 037 25.0
2019-Dec-05 03:46 025 25.0
2019-Dec-05 03:40 032 25.0
2019-Dec-05 03:35 027 25.0
2019-Dec-05 03:25 360 25.0
2019-Dec-05 03:20 008 25.0
2019-Dec-05 03:16 004 25.0
2019-Dec-05 03:11 027 25.0
2019-Dec-05 03:05 050 25.0
2019-Dec-05 03:02 011 25.0
2019-Dec-05 02:56 008 25.0
2019-Dec-05 02:50 045 25.0
2019-Dec-05 02:47 020 25.0
2019-Dec-05 02:40 027 25.0
2019-Dec-05 02:35 043 25.0
2019-Dec-05 02:31 018 25.0
2019-Dec-05 02:25 038 25.0
2019-Dec-05 02:20 010 25.0
2019-Dec-05 02:17 026 25.0
2019-Dec-05 02:10 010 25.0
2019-Dec-05 02:05 027 25.0
2019-Dec-05 02:01 039 25.0
2019-Dec-05 01:55 001 25.0
2019-Dec-05 01:50 027 25.0
2019-Dec-05 01:46 015 25.0
2019-Dec-05 01:40 026 25.0
2019-Dec-05 01:35 018 25.0
2019-Dec-05 01:31 045 25.0
2019-Dec-05 01:25 031 25.0
2019-Dec-05 01:20 019 25.0
2019-Dec-05 01:16 015 25.0
2019-Dec-05 01:10 018 25.0
2019-Dec-05 01:05 006 25.0
2019-Dec-05 01:01 041 25.0
2019-Dec-05 00:55 022 25.0
2019-Dec-05 00:50 039 25.6
2019-Dec-05 00:46 015 25.6
2019-Dec-05 00:40 358 25.6
2019-Dec-05 00:35 022 25.6
2019-Dec-05 00:31 014 25.6
2019-Dec-05 00:25 020 25.6
2019-Dec-05 00:20 025 25.6
2019-Dec-05 00:16 030 25.6
2019-Dec-05 00:10 001 25.6
2019-Dec-05 00:05 053 25.6
2019-Dec-05 00:01 349 25.6
2019-Dec-04 23:55 037 25.6
2019-Dec-04 23:50 034 25.6
2019-Dec-04 23:46 045 25.6
2019-Dec-04 23:40 035 25.6
2019-Dec-04 23:35 044 26.1
2019-Dec-04 23:31 008 26.1
2019-Dec-04 23:25 359 26.1
2019-Dec-04 23:20 022 26.1
2019-Dec-04 23:16 001 26.1
2019-Dec-04 23:10 041 26.1
2019-Dec-04 23:05 047 26.1
2019-Dec-04 23:01 024 26.7
2019-Dec-04 22:55 046 26.7
2019-Dec-04 22:50 043 26.7
2019-Dec-04 22:46 038 26.7
2019-Dec-04 22:40 006 26.7
2019-Dec-04 22:35 004 26.7
2019-Dec-04 22:25 013 27.2
2019-Dec-04 22:20 010 27.2
2019-Dec-04 22:16 033 27.2
2019-Dec-04 22:10 035 27.8
2019-Dec-04 22:05 063 27.8
2019-Dec-04 22:01 107 27.8
2019-Dec-04 21:55 086 27.8
2019-Dec-04 21:50 085 27.8
2019-Dec-04 21:47 045 27.8
2019-Dec-04 21:40 075 27.8
2019-Dec-04 21:35 086 27.8
2019-Dec-04 21:31 074 27.8
2019-Dec-04 21:25 064 28.3
2019-Dec-04 21:20 098 28.3
2019-Dec-04 21:16 096 28.3
2019-Dec-04 21:10 105 27.8
2019-Dec-04 21:05 070 27.8
2019-Dec-04 21:01 094 27.8
2019-Dec-04 20:55 086 27.8
2019-Dec-04 20:50 077 27.8
2019-Dec-04 20:46 084 27.8
2019-Dec-04 20:40 075 27.8
2019-Dec-04 20:35 102 27.8
2019-Dec-04 20:31 070 27.8
2019-Dec-04 20:25 063 27.8
2019-Dec-04 20:20 077 27.8
2019-Dec-04 20:16 078 27.8
2019-Dec-04 20:10 088 27.8
2019-Dec-04 20:05 063 27.8
2019-Dec-04 20:01 037 27.8